Location: Newark
(42.8481°N, 0.4872°E)
Time: 00:25:33
(UTC+00:00)

Transit 2A - Pass Details

Date: 05 November 2020
Orbit: 595 x 963 km, 66.7° (Epoch: 03 December)

Event Time Altitude Azimuth Distance (km) Brightness Sun altitude
Rises 07:29:09 0° 331° (NNW) 3,422 8.8 7.6°
Reaches altitude 10° 07:31:47 10° 335° (NNW) 2,425 8.1 8.1°
Maximum altitude 07:37:15 57° 55° (NE) 890 6.7 8.9°
Drops below altitude 10° 07:42:07 10° 134° (SE) 2,166 10.6 9.7°
Sets 07:44:22 0° 138° (SE) 3,028 10.8 10.0°
